Location: Düngen
(52.0952°N, 10.0219°E)
Time: 18:35:46
(UTC+00:00)

ERS-1 Rocket - Pass Details

Date: 11 March 2026
Orbit: 747 x 750 km, 98.2° (Epoch: 20 April)

Event Time Altitude Azimuth Distance (km) Brightness Sun altitude
Exits shadow 18:25:31 14° 117° (ESE) 2,024 4.6 -11.3°
Maximum altitude 18:29:08 31° 62° (ENE) 1,306 3.8 -11.8°
Drops below altitude 10° 18:33:29 10° 2° (N) 2,279 5.6 -12.5°
Sets 18:35:59 0° 352° (N) 3,208 6.5 -12.9°
